www.pogodaiklimat.ru

Погода и климат >> Архив погоды >> Бразилия >> Санта-Катарина >> Арарангуа


ПОГОДА в Арарангуе

  • Прогноз погоды в Арарангуе
  • Монитор погоды в Арарангуе

АРХИВ ПОГОДЫ в Арарангуе

Время (UTC), дата Ветер
(напр.,м/с)
 
Видим.   Явления Облачность Т
(С)
Тd
(С)
f
(%)
Тe
(С)
Тes
(С)
Комфортность P
(гПа)
Po
(гПа)
Тmin
(С)
Tmax
(С)
R
(мм)
R24
(мм)
S
(см)
22 10.08 ЮЗ 1
{4}
н/о н/о +18.6 +10.6 60 +20 +20 1019.3 1019.1
23 10.08 Ю 2
{3}
н/о н/о +16.9 +11.1 69 +17 +17 1020.5 1020.3
00 11.08 Ю 2
{4}
н/о н/о +16.1 +11.7 75 +16 +16 1021.3 1021.1
01 11.08 Ю 2
{3}
н/о н/о +15.5 +11.9 79 +16 +16 1021.9 1021.7
02 11.08 Ю 1
{3}
н/о н/о +14.2 +11.8 85 +15 +15 1022.5 1022.3
03 11.08 Ю 1
{2}
н/о н/о +14.1 +12.1 88 +14 +14 1022.5 1022.3
04 11.08 Ю 1
{2}
н/о н/о +13.7 +11.8 88 +14 +14 1022.5 1022.3
05 11.08 штиль 0
{2}
н/о н/о +12.2 +10.9 92 +12 +12 1022.5 1022.3
06 11.08 З 1
{2}
н/о н/о +11.2 +10.3 94 +12 +12 1022.3 1022.1
07 11.08 С 1
{2}
н/о н/о +10.7 +10.0 95 +11 +11 1022.7 1022.5
08 11.08 С 1
{2}
н/о н/о +10.0 +9.3 95 +10 +10 1023.1 1022.9
09 11.08 штиль 0
{1}
н/о н/о +10.7 +10.2 97 +10 +10 1024.0 1023.8
10 11.08 Ю 1
{1}
н/о н/о +11.3 +11.0 98 +12 +12 1024.7 1024.5
11 11.08 СЗ 1
{2}
н/о н/о +12.3 +12.0 98 +13 +13 1025.2 1025.0
12 11.08
{2}
н/о н/о +13.8 +13.1 96 1025.4 1025.2
13 11.08 СВ 1
{1}
н/о н/о +15.6 +13.2 86 +17 +17 1025.6 1025.4
14 11.08 В 2
{3}
н/о н/о +16.6 +10.7 68 +17 +17 1025.0 1024.8
15 11.08 В 2
{3}
н/о н/о +17.1 +12.0 72 +18 +18 1023.9 1023.7
16 11.08 В 2
{4}
н/о н/о +17.3 +12.5 73 +18 +18 1022.8 1022.6
17 11.08 В 2
{4}
н/о н/о +17.3 +12.8 75 +18 +18 1021.7 1021.5
18 11.08 В 2
{4}
н/о н/о +17.1 +12.4 74 +17 +17 1021.0 1020.8
19 11.08 В 2
{4}
н/о н/о +17.2 +13.2 77 +18 +18 1020.2 1020.0
20 11.08 В 2
{4}
н/о н/о +17.1 +13.2 78 +17 +17 1020.1 1019.9
21 11.08 В 1
{3}
н/о н/о +16.3 +13.2 82 +17 +17 1019.8 1019.6
22 11.08 В 1
{2}
н/о н/о +15.6 +13.3 86 +16 +16 1019.6 1019.4
23 11.08 СВ 1
{2}
н/о н/о +15.2 +13.1 87 +16 +16 1019.5 1019.3
00 12.08 штиль 0
{1}
н/о н/о +14.4 +13.2 92 +14 +14 1019.3 1019.1
01 12.08 С 1
{1}
н/о н/о +14.2 +13.3 94 +15 +15 1018.6 1018.4
02 12.08 штиль 0
{1}
н/о н/о +13.5 +12.9 96 +13 +13 1017.9 1017.7
03 12.08 С 1
{1}
н/о н/о +13.4 +12.9 97 +14 +14 1017.0 1016.8
04 12.08 З 1
{1}
н/о н/о +13.8 +13.5 98 +15 +15 1016.2 1016.0
05 12.08 С 1
{1}
н/о н/о +13.7 +13.6 99 +15 +15 1014.8 1014.6
06 12.08 СЗ 1
{1}
н/о н/о +13.4 +13.3 99 +14 +14 1014.3 1014.1
07 12.08 Ю 1
{1}
н/о н/о +13.5 +13.3 99 +14 +14 1013.3 1013.1
08 12.08 СВ 1
{1}
н/о н/о +13.6 +13.4 99 +14 +14 1012.7 1012.5
09 12.08 Ю 2
{5}
н/о н/о +14.5 +13.8 96 +14 +14 1013.9 1013.7
10 12.08 Ю 3
{5}
н/о н/о +16.2 +14.8 91 +16 +16 1015.0 1014.8
11 12.08 ЮЗ 1
{4}
н/о н/о +16.6 +15.1 91 +17 +17 1015.8 1015.6
12 12.08 ЮЗ 2
{4}
н/о н/о +17.9 +15.2 84 +18 +18 1017.0 1016.8
13 12.08 ЮЗ 2
{4}
н/о н/о +19.7 +16.0 79 +22 +22 комфорт 1018.0 1017.8
14 12.08 ЮЗ 2
{5}
н/о н/о +20.2 +15.8 76 +24 +24 комфорт 1017.4 1017.2
15 12.08 СВ 1
{3}
н/о н/о +21.8 +16.3 71 +26 +26 душно 1016.0 1015.8
16 12.08 З 1
{3}
н/о н/о +22.0 +17.4 75 +26 +26 душно 1015.8 1015.6
17 12.08 СВ 2
{3}
н/о н/о +23.0 +17.8 73 +28 +28 душно 1013.2 1013.0
18 12.08 ЮВ 1
{3}
н/о н/о +25.6 +18.8 66 +31 +31 очень
душно
1013.4 1013.2
19 12.08 В 2
{3}
н/о н/о +22.9 +17.5 72 +28 +28 душно 1013.7 1013.5
20 12.08 ЮВ 1
{3}
н/о н/о +21.8 +17.1 75 +26 +26 душно 1014.0 1013.8
21 12.08 ЮВ 1
{2}
н/о н/о +20.3 +16.5 79 +24 +24 комфорт 1013.9 1013.7
22 12.08 Ю 2
{3}
н/о н/о +18.1 +16.3 89 +19 +19 1014.9 1014.7
23 12.08 Ю 2
{5}
н/о н/о +17.3 +16.8 97 +18 +18 1017.6 1017.4 6
00 13.08 Ю 3
{5}
н/о н/о +15.1 +14.3 95 +14 +14 1018.7 1018.5 4
01 13.08 Ю 2
{5}
н/о н/о +15.2 +14.2 94 +15 +15 1019.2 1019.0 0.2
02 13.08 Ю 3
{5}
н/о н/о +14.6 +13.4 93 +14 +14 1020.1 1019.9 0.4
03 13.08 ЮЗ 2
{5}
н/о н/о +14.4 +13.5 94 +14 +14 1020.4 1020.2 1
04 13.08 З 1
{3}
н/о н/о +14.6 +13.5 93 +16 +16 1020.7 1020.5
05 13.08 Ю 2
{4}
н/о н/о +15.1 +12.6 85 +15 +15 1021.0 1020.8
06 13.08 ЮЗ 2
{4}
н/о н/о +15.3 +11.3 77 +15 +15 1021.7 1021.5
07 13.08 ЮЗ 1
{4}
н/о н/о +15.1 +11.4 79 +16 +16 1021.9 1021.7
08 13.08 З 1
{3}
н/о н/о +13.8 +9.3 74 +14 +14 1022.2 1022.0
09 13.08 З 2
{3}
н/о н/о +13.5 +8.5 72 +13 +13 1023.5 1023.3
10 13.08 Ю 2
{3}
н/о н/о +12.5 +8.6 77 +12 +12 1024.1 1023.9
11 13.08 Ю 2
{4}
н/о н/о +13.6 +10.2 80 +13 +13 1024.8 1024.6
12 13.08 Ю 3
{5}
н/о н/о +14.1 +9.8 75 +13 +13 1025.7 1025.5
13 13.08 Ю 3
{5}
н/о н/о +14.7 +9.2 70 +14 +14 1026.4 1026.2
14 13.08 Ю 3
{5}
н/о н/о +15.6 +9.5 67 +15 +15 1026.8 1026.6
15 13.08 Ю 3
{6}
н/о н/о +15.3 +7.7 60 +15 +15 1026.3 1026.1
16 13.08 Ю 3
{6}
н/о н/о +15.9 +7.3 57 +15 +15 1025.8 1025.6
17 13.08 Ю 4
{6}
н/о н/о +15.4 +5.6 52 +15 +15 1025.5 1025.3
18 13.08 Ю 4
{7}
н/о н/о +14.7 +6.4 57 +14 +14 1025.6 1025.4
19 13.08 Ю 3
{7}
н/о н/о +14.8 +4.8 51 +14 +14 1026.2 1026.0
20 13.08 ЮЗ 4
{7}
н/о н/о +13.8 +3.1 48 +13 +13 1027.2 1027.0
21 13.08 Ю 4
{7}
н/о н/о +11.5 +4.8 63 +10 +10 1028.5 1028.3
22 13.08 Ю 2
{6}
н/о н/о +10.4 +4.6 67 +10 +10 1029.7 1029.5
23 13.08 ЮЗ 3
{4}
н/о н/о +10.3 +4.3 66 +9 +9 1030.7 1030.5
00 14.08 ЮЗ 2
{4}
н/о н/о +9.8 +3.8 66 +9 +9 1031.4 1031.2
01 14.08 СЗ 1
{3}
н/о н/о +8.7 +3.8 71 +9 +9 1031.8 1031.5
02 14.08 ЮЗ 1
{1}
н/о н/о +8.4 +4.1 74 +8 +8 1032.4 1032.1
03 14.08 ЮЗ 1
{2}
н/о н/о +8.4 +3.4 71 +9 +9 1032.7 1032.4
04 14.08 З 1
{1}
н/о н/о +7.1 +4.4 83 +6 +6 1032.8 1032.5
05 14.08 ЮЗ 1
{1}
н/о н/о +6.6 +3.2 79 +7 +7 1032.7 1032.4
06 14.08 З 1
{1}
н/о н/о +5.6 +2.9 83 +6 +6 1032.6 1032.3
07 14.08 З 1
{2}
н/о н/о +6.1 +3.5 83 +5 +5 1032.8 1032.5
08 14.08 З 1
{2}
н/о н/о +5.8 +2.9 82 +5 +5 1032.8 1032.5
09 14.08 З 1
{2}
н/о н/о +6.0 +2.0 75 +5 +5 1033.1 1032.8
10 14.08 З 1
{2}
н/о н/о +6.1 +1.4 72 +5 +5 1033.5 1033.2
12 14.08 З 2
{3}
н/о н/о +9.8 +2.1 59 +9 +9 1034.8 1034.6
13 14.08 З 2
{3}
н/о н/о +12.5 +3.8 55 +12 +12 1035.3 1035.1
14 14.08 ЮЗ 2
{4}
н/о н/о +13.5 +5.9 60 +13 +13 1035.4 1035.2
15 14.08 З 1
{4}
н/о н/о +14.8 +7.1 60 +15 +15 1034.9 1034.7
16 14.08 Ю 2
{4}
н/о н/о +16.0 +7.9 59 +16 +16 1034.1 1033.9
17 14.08 Ю 2
{3}
н/о н/о +16.2 +8.4 60 +17 +17 1033.2 1033.0
18 14.08 Ю 3
{4}
н/о н/о +15.5 +8.9 65 +15 +15 1033.0 1032.8
19 14.08 Ю 3
{4}
н/о н/о +14.6 +8.9 69 +14 +14 1033.0 1032.8
20 14.08 Ю 2
{4}
н/о н/о +13.8 +9.0 73 +13 +13 1033.3 1033.1
21 14.08 Ю 2
{3}
н/о н/о +12.5 +9.2 80 +12 +12 1033.5 1033.3
22 14.08 ЮВ 1
{2}
н/о н/о +11.7 +9.1 84 +12 +12 1033.9 1033.7
23 14.08 ЮВ 1
{2}
н/о н/о +11.3 +9.0 86 +12 +12 1033.8 1033.6
00 15.08 З 1
{1}
н/о н/о +9.8 +8.5 92 +10 +10 1034.0 1033.8
01 15.08 штиль 0
{1}
н/о н/о +8.7 +7.6 93 +8 +8 1034.1 1033.8
02 15.08 штиль 0
{1}
н/о н/о +9.3 +8.4 94 +8 +8 1033.9 1033.6
03 15.08 СЗ 1
{2}
н/о н/о +8.7 +8.0 95 +8 +8 1033.2 1032.9
04 15.08 штиль 0
{2}
н/о н/о +8.7 +8.2 97 +8 +8 1032.5 1032.2
05 15.08 штиль 0
{1}
н/о н/о +7.6 +7.2 97 +7 +7 1031.8 1031.5
06 15.08 штиль 0
{1}
н/о н/о +7.1 +6.7 97 +6 +6 1030.6 1030.3
07 15.08 Ю 1
{1}
н/о н/о +6.9 +6.6 98 +7 +7 1030.1 1029.8
08 15.08 Ю 1
{1}
н/о н/о +7.0 +6.7 98 +7 +7 1030.2 1029.9
09 15.08 З 1
{1}
н/о н/о +8.1 +7.9 99 +8 +8 1030.6 1030.3
10 15.08 З 1
{2}
н/о н/о +8.0 +7.8 99 +7 +7 1031.0 1030.7
11 15.08 З 1
{2}
н/о н/о +8.4 +8.2 99 +8 +8 1031.2 1030.9
12 15.08 З 1
{1}
н/о н/о +11.7 +11.7 100 +12 +12 1031.0 1030.8
13 15.08 СЗ 1
{2}
н/о н/о +14.4 +12.0 85 +15 +15 1030.5 1030.3
14 15.08 З 1
{2}
н/о н/о +16.7 +11.8 73 +18 +18 1029.7 1029.5
15 15.08 С 1
{2}
н/о н/о +20.1 +13.2 64 +24 +24 комфорт 1028.3 1028.1
16 15.08 З 1
{3}
н/о н/о +20.6 +13.2 63 +24 +24 комфорт 1026.9 1026.7
17 15.08 В 2
{4}
н/о н/о +20.8 +14.5 67 +24 +24 комфорт 1025.9 1025.7
18 15.08 В 2
{4}
н/о н/о +20.9 +13.8 64 +24 +24 комфорт 1024.9 1024.7
19 15.08 В 2
{4}
н/о н/о +20.1 +13.7 67 +23 +23 комфорт 1024.1 1023.9
20 15.08 В 2
{4}
н/о н/о +19.6 +13.3 67 +22 +22 комфорт 1024.0 1023.8
21 15.08 В 2
{3}
н/о н/о +18.3 +12.8 70 +19 +19 1023.8 1023.6
22 15.08 СВ 2
{3}
н/о н/о +17.3 +12.2 72 +18 +18 1024.2 1024.0
23 15.08 В 1
{3}
н/о н/о +16.2 +11.7 75 +17 +17 1024.6 1024.4
00 16.08 С 1
{2}
н/о н/о +14.0 +11.1 83 +15 +15 1024.8 1024.6
01 16.08 штиль 0
{1}
н/о н/о +12.0 +10.6 91 +11 +11 1024.8 1024.6
02 16.08 штиль 0
{1}
н/о н/о +11.3 +10.4 94 +11 +11 1024.9 1024.7
03 16.08 В 1
{1}
н/о н/о +11.2 +10.6 96 +12 +12 1024.7 1024.5
04 16.08 ЮВ 1
{1}
н/о н/о +10.4 +10.1 98 +11 +11 1024.1 1023.9
05 16.08 СЗ 1
{1}
н/о н/о +9.2 +8.9 98 +9 +9 1023.3 1023.1
06 16.08 штиль 0
{1}
н/о н/о +8.6 +8.4 99 +8 +8 1022.9 1022.7
07 16.08 СЗ 1
{1}
н/о н/о +8.3 +8.2 99 +8 +8 1022.4 1022.2
08 16.08 штиль 0
{1}
н/о н/о +8.7 +8.6 99 +8 +8 1022.2 1022.0
09 16.08 З 1
{1}
н/о н/о +8.0 +7.8 99 +8 +8 1022.3 1022.1
10 16.08 штиль 0
{1}
н/о н/о +8.3 +8.1 99 +7 +7 1022.6 1022.4
11 16.08 штиль 0
{1}
н/о н/о +9.8 +9.7 99 +9 +9 1022.9 1022.7
12 16.08 З 1
{1}
н/о н/о +13.5 +13.5 100 +14 +14 1022.8 1022.6
13 16.08 СЗ 1
{1}
н/о н/о +16.9 +14.1 84 +18 +18 1022.5 1022.3
14 16.08 СВ 1
{2}
н/о н/о +20.5 +14.1 67 +25 +25 комфорт 1021.7 1021.5
15 16.08 СВ 1
{2}
н/о н/о +23.1 +14.5 58 +27 +27 душно 1020.8 1020.6
16 16.08 В 1
{2}
н/о н/о +24.3 +14.9 56 +27 +27 жарко 1019.6 1019.4
17 16.08 В 1
{3}
н/о н/о +24.5 +15.0 55 +27 +27 жарко 1018.7 1018.5
18 16.08 В 1
{2}
н/о н/о +24.4 +16.7 62 +28 +28 душно 1017.9 1017.7
19 16.08 В 1
{2}
н/о н/о +24.0 +15.9 61 +27 +27 жарко 1017.7 1017.5
20 16.08 ЮВ 1
{2}
н/о н/о +23.3 +16.2 64 +28 +28 душно 1017.5 1017.3 0.2
21 16.08 Ю 1
{2}
н/о н/о +20.1 +16.3 79 +24 +24 комфорт 1017.9 1017.7
22 16.08 Ю 1
{2}
н/о н/о +18.1 +15.7 86 +20 +20 1018.4 1018.2
23 16.08 З 1
{1}
н/о н/о +16.4 +15.2 93 +18 +18 1018.5 1018.3
00 17.08 СВ 1
{1}
н/о н/о +15.4 +14.8 96 +17 +17 1018.3 1018.1
01 17.08 Ю 1
{1}
н/о н/о +15.3 +15.0 98 +16 +16 1018.2 1018.0
02 17.08 С 1
{1}
н/о н/о +14.0 +13.8 99 +15 +15 1017.8 1017.6
03 17.08 штиль 0
{1}
н/о н/о +13.5 +13.5 100 +13 +13 1017.5 1017.3
04 17.08 штиль 0
{1}
н/о н/о +13.1 +13.1 100 +12 +12 1017.1 1016.9
05 17.08 С 1
{1}
н/о н/о +12.4 +12.4 100 +13 +13 1016.0 1015.8
06 17.08 штиль 0
{1}
н/о н/о +11.6 +11.6 100 +11 +11 1015.4 1015.2
07 17.08 СЗ 1
{1}
н/о н/о +11.1 +11.1 100 +12 +12 1015.0 1014.8
08 17.08 С 1
{1}
н/о н/о +11.0 +11.0 100 +11 +11 1015.1 1014.9
09 17.08 СВ 1
{1}
н/о н/о +10.4 +10.4 100 +11 +11 1015.5 1015.3
10 17.08 штиль 0
{1}
н/о н/о +10.3 +10.3 100 +9 +9 1015.7 1015.5
11 17.08 С 1
{1}
н/о н/о +12.6 +12.6 100 +13 +13 1016.0 1015.8
12 17.08 С 1
{1}
н/о н/о +17.3 +19 +19 1015.6 1015.4
13 17.08 СВ 1
{2}
н/о н/о +23.4 +18.2 73 +29 +29 душно 1014.7 1014.5
14 17.08 СВ 1
{2}
н/о н/о +26.5 +16.8 55 +30 +30 душно 1013.3 1013.1
15 17.08 В 1
{2}
н/о н/о +27.9 +15.0 45 +30 +30 жарко 1012.0 1011.8
16 17.08 В 2
{3}
н/о н/о +28.6 +15.7 46 +32 +32 душно 1009.9 1009.7
17 17.08 В 2
{4}
н/о н/о +27.5 +18.4 58 +32 +32 очень
душно
1008.4 1008.2
18 17.08 В 2
{4}
н/о н/о +27.9 +17.4 53 +32 +32 душно 1007.3 1007.1
19 17.08 В 2
{4}
н/о н/о +28.1 +18.3 55 +33 +33 очень
душно
1007.1 1006.9
20 17.08 В 1
{3}
н/о н/о +26.8 +18.3 60 +32 +32 очень
душно
1007.4 1007.2

 

Местоположение метеостанции Арарангуа (Санта-Катарина, Бразилия): широта -28.93 долгота -49.50 высота над уровнем моря 14 м.

В архиве по умолчанию представлена погода в Арарангуе за последнюю неделю. Архивные данные за месяц целиком и за предыдущие месяцы, начиная с января 2011 года, Вы можете получить, выбрав интересующий диапазон дат из раскрывающегося списка и нажав кнопку "Ввод!".


*Определитесь, кто Вы:
робот инопланетянин человек

Внимание! Время в таблицах - всемирное. Для получения местного времени необходимо прибавить поправку, которая равна -3 ч.

Смотрите также архив погоды в соседних городах и на ближайших метеорологических станциях:

Погода в Урусанге (Санта-Катарина, Бразилия) (48 км)
Погода в Торресе (Санта-Катарина, Бразилия) (50 км)
Погода в Торресе (Санта-Катарина, Бразилия) (52 км)
Погода в Сан-Хосе-дос-Аусенте (Риу-Гранди-ду-Сул, Бразилия) (58 км)
Погода в Санта-Марте (Санта-Катарина, Бразилия) (76 км)
Погода в Сан-Хоакиме (Санта-Катарина, Бразилия) (84 км)
Погода в Урубиси (Санта-Катарина, Бразилия) (89 км)
Погода в Бон-Жезусе (Риу-Гранди-ду-Сул, Бразилия) (95 км)
Погода в Трамандаи (Риу-Гранди-ду-Сул, Бразилия) (135 км)
Погода в Канеле (Риу-Гранди-ду-Сул, Бразилия) (138 км)

Пояснения к столбцам:

Ветер - указаны скорость ветра в м/с - средняя за 10 мин, порывы в срок и между сроками (в фигурных скобках) и направление, откуда дует ветер: С - северный, СВ - северо-восточный, В - восточный, ЮВ - юго-восточный, Ю - южный, ЮЗ - юго-западный, З - западный, СЗ - северо-западный.
Видимость - горизонтальная дальность видимости в метрах или километрах. При видимости от 1 до 10 км при отсутствии осадков обычно наблюдается дымка, при ухудшении видимости до 1 км и менее - туман. В сухую погоду видимость может ухудшаться дымом, пылью или мглою.
Явления - указаны атмосферные явления, наблюдавшиеся в срок или в последний час перед сроком; фигурными скобками обозначены явления, наблюдавшиеся между сроками (за 1-3 часа до срока); квадратными скобками обозначены град или гололедные отложения с указанием их диаметра в мм.
Облачность - указаны через наклонную черту общая и нижняя облачность в баллах и высота нижней границы облаков в метрах; квадратными скобками обозначены формы облаков: Ci - перистые, Cs - перисто-слоистые, Cc - перисто-кучевые, Ac - высококучевые, As - высокослоистые, Sc - слоисто-кучевые, Ns - слоисто-дождевые, Cu - кучевые, Cb - кучево-дождевые. Подробнее классификацию облаков см. в Атласе облаков (PDF).
T - Температура воздуха - температура, измеренная на высоте 2 м над землей.
Td - Температура точки росы - температура, при понижении до которой содержащийся в воздухе водяной пар достигнет насыщения.
f - Относительная влажность воздуха - влажноcть воздуха, измеренная на высоте 2 м над землей.
Te - Эффективная температура - температура, которую ощущает одетый по сезону человек в тени. Характеристика душности погоды. При расчете учитывается влияние влажности воздуха и скорости ветра на теплоощущения человека.
Tes - Эффективная температура на солнце - температура, которую ощущает человек, с поправкой на солнечный нагрев. Характеристика знойности погоды. Зависит от высоты солнца над горизонтом, облачности и скорости ветра. Ночью, в пасмурную погоду, а также при ветре 12 м/с и более поправка равна нулю.
P - Атмосферное давление - приведенное к уровню моря атмосферное давление.
Po - Атмосферное давление - измеренное на уровне метеостанции атмосферное давление.
Tmin - Минимальная температура - минимум температуры воздуха на высоте 2 м над землей.
Tmax - Максимальная температура - максимум температуры воздуха на высоте 2 м над землей.
R - Количество осадков - Количество выпавших осадков за период времени, мм. При наведении курсора мыши на число - период времени, за который выпало указанное количество осадков.
R24 - Количество осадков - Количество выпавших осадков за 24 часа, мм.
S - Снежный покров - Высота снежного покрова, см. При наведении курсора мыши на число - состояние снежного покрова и степень покрытия местности в баллах.